Вернуться в каталог

CZ-6A DEB

АктивенPO
NORAD 60762·DEBRIS·🇨🇳 China

Запущен Aug 6, 2024 с Taiyuan Satellite Launch Center

Loading…

Ближайшие Пролёты (ближайшие 24 часа)

TLE

СвежийSource: Space-Track

Эпоха: Sep 14, 2026, 10:37 UTC

1 60762U 24140EM  26257.44244056  .00000827  00000-0  19141-3 0  9999
2 60762  89.0252 262.9572 0101540 340.1161  19.6099 14.51087712110573

Отслеживайте CZ-6A DEB в реальном времени с AllMySat

Download on the App Store